Truth Or Consequences, NM

6:28 AM MST on December 14, 2019 (GMT -0700)
Truth Or Consequences Municipal

Weather History for KTCS - October, 2019

Change the Weather History Date:

Monday, October 14, 2019

  Actual Average Record
Temperature  
Mean Temperature 65 °F -  
Max Temperature 79 °F 75 °F 90 °F (2017)
Min Temperature 51 °F 48 °F 36 °F (1997)
Degree Days  
Heating Degree Days 0    
Month to date heating degree days  
Since 1 July heating degree days  
Cooling Degree Days 0    
Month to date cooling degree days  
Year to date cooling degree days  
Growing Degree Days 15 (Base 50)    
Moisture  
Dew Point 40 °F    
Average Humidity 40    
Maximum Humidity 75    
Minimum Humidity 24    
Precipitation  
Precipitation 0.00 in - 0.16 in (2006)
Month to date precipitation  
Year to date precipitation  
Sea Level Pressure  
Sea Level Pressure 29.85 in    
Wind  
Wind Speed 6 mph ()    
Max Wind Speed 13 mph    
Max Gust Speed 17 mph    
Visibility 10.0 miles    
Events      
T = Trace of Precipitation, MM = Missing Value Source: Averaged Metar Reports

Daily Weather History Graph

Daily Weather History Graph

Search for Another Location

Airport or City:

Astronomy

Oct. 14, 2019 Rise Set
Actual Time 7:12 AM MDT 6:37 PM MDT
Civil Twilight 6:47 AM MDT 7:01 PM MDT
Nautical Twilight 6:18 AM MDT 7:30 PM MDT
Astronomical Twilight 5:50 AM MDT 7:59 PM MDT
Moon 7:29 PM MDT 7:48 AM MDT
Length of Visible Light 12h 14m
Length of Day
11h 24m
Full, 99% of the Moon is Illuminated
Oct 14
Full
Oct 21
Last Quarter
Oct 27
New
Nov 4
First Quarter
Nov 12
Full

Hourly Weather History & Observations

Time (MDT) Temp. Dew Point Humidity Pressure Visibility Wind Dir Wind Speed Gust Speed Precip Events Conditions
12:53 AM 57.9 °F 35.1 °F 42% 29.86 in 10.0 mi WNW 4.6 mph - N/A   Clear
1:53 AM 57.9 °F 35.1 °F 42% 29.87 in 10.0 mi WSW 5.8 mph - N/A   Clear
2:53 AM 55.9 °F 35.1 °F 45% 29.86 in 10.0 mi WNW 5.8 mph - N/A   Clear
3:53 AM 52.0 °F 34.0 °F 50% 29.86 in 10.0 mi WNW 5.8 mph - N/A   Clear
4:53 AM 51.1 °F 35.1 °F 54% 29.87 in 10.0 mi NW 5.8 mph - N/A   Clear
5:53 AM 52.0 °F 32.0 °F 47% 29.87 in 10.0 mi NW 6.9 mph - N/A   Clear
6:53 AM 53.1 °F 30.9 °F 43% 29.90 in 10.0 mi NW 6.9 mph - N/A   Clear
7:53 AM 55.9 °F 32.0 °F 40% 29.90 in 10.0 mi WNW 8.1 mph - N/A   Clear
8:53 AM 62.1 °F 34.0 °F 35% 29.91 in 10.0 mi WNW 6.9 mph - N/A   Clear
9:53 AM 66.0 °F 43.0 °F 43% 29.91 in 10.0 mi South 3.5 mph - N/A   Partly Cloudy
10:53 AM 68.0 °F 45.0 °F 43% 29.90 in 10.0 mi SSE 6.9 mph - N/A   Partly Cloudy
11:53 AM 70.0 °F 46.0 °F 42% 29.88 in 10.0 mi North - - N/A   Clear
12:53 PM 73.0 °F 46.9 °F 39% 29.87 in 10.0 mi Variable 5.8 mph - N/A   Mostly Cloudy
1:53 PM 73.9 °F 46.9 °F 38% 29.83 in 10.0 mi SW 8.1 mph - N/A   Clear
2:53 PM 77.0 °F 37.9 °F 24% 29.79 in 10.0 mi South 12.7 mph 17.3 mph N/A   Clear
3:53 PM 78.1 °F 39.9 °F 25% 29.80 in 10.0 mi SSE 10.4 mph - N/A   Clear
4:53 PM 79.0 °F 39.0 °F 24% 29.79 in 10.0 mi SSW 9.2 mph - N/A   Clear
5:53 PM 77.0 °F 37.0 °F 24% 29.78 in 10.0 mi South 12.7 mph - N/A   Clear
6:53 PM 73.9 °F 37.9 °F 27% 29.79 in 10.0 mi SE 10.4 mph - N/A   Clear
7:53 PM 73.0 °F 39.9 °F 30% 29.81 in 10.0 mi SSW 9.2 mph - N/A   Clear
8:53 PM 70.0 °F 41.0 °F 35% 29.83 in 10.0 mi South 6.9 mph - N/A   Clear
9:53 PM 66.0 °F 37.0 °F 34% 29.85 in 10.0 mi SSW 6.9 mph - N/A   Clear
10:53 PM 66.0 °F 54.0 °F 65% 29.86 in 10.0 mi SSW 10.4 mph - N/A   Clear
11:53 PM 63.0 °F 55.0 °F 75% 29.87 in 10.0 mi SSW 6.9 mph - N/A   Clear